SBI1056 UWKD-UUDD

Flight info

Callsign SBI1056
Flight time 1h 14m
Altitude 34000
Route APTAR T787 URAGO
Aircraft A319/M-SDE3FGHIRWY/LB1

Departure

Time 2026-05-07 17:27
Airport Kazan International Airport (UWKD)

Arrival

Time 2026-05-07 18:42
Airport Domodedovo International Airport (UUDD)
Time Latitude Longitude Altitude Speed Heading
2026-05-07 16:08 55.60696 49.30022 416 ft 0 kts 34°
2026-05-07 17:06 55.60686 49.30009 410 ft 4 kts 30°
2026-05-07 17:07 55.60661 49.29989 416 ft 4 kts 15°
2026-05-07 17:07 55.60635 49.29980 409 ft 4 kts
2026-05-07 17:07 55.60608 49.29983 412 ft 4 kts 349°
2026-05-07 17:07 55.60582 49.29993 405 ft 4 kts 348°
2026-05-07 17:08 55.60560 49.29995 408 ft 1 kts 34°
2026-05-07 17:10 55.60562 49.29997 409 ft 2 kts 34°
2026-05-07 17:10 55.60597 49.30014 416 ft 7 kts 351°
2026-05-07 17:10 55.60637 49.29937 408 ft 12 kts 303°
2026-05-07 17:11 55.60702 49.29769 415 ft 21 kts 305°
2026-05-07 17:11 55.60793 49.29533 413 ft 22 kts 304°
2026-05-07 17:11 55.60776 49.29379 416 ft 15 kts 212°
2026-05-07 17:11 55.60672 49.29253 413 ft 20 kts 214°
2026-05-07 17:12 55.60577 49.29078 414 ft 20 kts 254°
2026-05-07 17:12 55.60584 49.28834 416 ft 20 kts 274°
2026-05-07 17:12 55.60603 49.28588 412 ft 19 kts 291°
2026-05-07 17:12 55.60655 49.28452 413 ft 11 kts 305°
2026-05-07 17:13 55.60703 49.28329 416 ft 16 kts 304°
2026-05-07 17:13 55.60779 49.28134 411 ft 21 kts 304°
2026-05-07 17:13 55.60863 49.27915 414 ft 23 kts 306°
2026-05-07 17:13 55.60953 49.27681 410 ft 23 kts 304°
2026-05-07 17:14 55.61044 49.27449 413 ft 23 kts 304°
2026-05-07 17:14 55.61135 49.27216 414 ft 23 kts 304°
2026-05-07 17:14 55.61219 49.26999 416 ft 21 kts 304°
2026-05-07 17:14 55.61293 49.26807 412 ft 17 kts 304°
2026-05-07 17:15 55.61318 49.26744 413 ft 1 kts 304°
2026-05-07 17:15 55.61343 49.26681 414 ft 12 kts 304°
2026-05-07 17:15 55.61393 49.26550 414 ft 13 kts 304°
2026-05-07 17:15 55.61449 49.26406 413 ft 17 kts 303°
2026-05-07 17:16 55.61521 49.26220 414 ft 19 kts 304°
2026-05-07 17:16 55.61576 49.26079 416 ft 13 kts 304°
2026-05-07 17:16 55.61623 49.25960 413 ft 9 kts 304°
2026-05-07 17:16 55.61659 49.25867 413 ft 8 kts 304°
2026-05-07 17:17 55.61689 49.25789 414 ft 8 kts 304°
2026-05-07 17:17 55.61726 49.25694 410 ft 11 kts 304°
2026-05-07 17:17 55.61776 49.25566 412 ft 14 kts 304°
2026-05-07 17:17 55.61817 49.25458 410 ft 3 kts 304°
2026-05-07 17:18 55.61818 49.25457 410 ft 0 kts 304°
2026-05-07 17:21 55.61819 49.25453 411 ft 2 kts 304°
2026-05-07 17:21 55.61845 49.25383 413 ft 9 kts 300°
2026-05-07 17:21 55.61851 49.25320 415 ft 0 kts 259°
2026-05-07 17:22 55.61850 49.25314 415 ft 2 kts 257°
2026-05-07 17:22 55.61833 49.25269 410 ft 1 kts 221°
2026-05-07 17:23 55.61826 49.25259 415 ft 5 kts 219°
2026-05-07 17:23 55.61804 49.25232 412 ft 0 kts 214°
2026-05-07 17:25 55.61791 49.25217 410 ft 9 kts 214°
2026-05-07 17:25 55.61718 49.25142 409 ft 15 kts 191°
2026-05-07 17:25 55.61663 49.25197 407 ft 0 kts 126°
2026-05-07 17:26 55.61658 49.25210 410 ft 4 kts 125°
2026-05-07 17:26 55.61507 49.25603 414 ft 77 kts 123°
2026-05-07 17:27 55.61074 49.26721 413 ft 140 kts 124°
2026-05-07 17:27 55.60444 49.28349 654 ft 168 kts 124°
2026-05-07 17:27 55.59744 49.30068 1245 ft 176 kts 127°
2026-05-07 17:27 55.58994 49.31855 1772 ft 190 kts 126°
2026-05-07 17:28 55.58200 49.33887 2089 ft 212 kts 125°
2026-05-07 17:28 55.57332 49.36165 2522 ft 232 kts 124°
2026-05-07 17:28 55.56422 49.38554 3340 ft 237 kts 124°
2026-05-07 17:28 55.55483 49.40982 4168 ft 242 kts 127°
2026-05-07 17:29 55.54140 49.42892 4669 ft 263 kts 161°
2026-05-07 17:29 55.52289 49.43068 5252 ft 274 kts 198°
2026-05-07 17:29 55.50697 49.41294 6099 ft 275 kts 233°
2026-05-07 17:29 55.49783 49.38348 6924 ft 275 kts 248°
2026-05-07 17:30 55.48670 49.35591 7630 ft 284 kts 224°
2026-05-07 17:30 55.47015 49.33642 7896 ft 287 kts 208°
2026-05-07 17:30 55.45180 49.32253 7968 ft 287 kts 202°
2026-05-07 17:30 55.43320 49.30975 7974 ft 286 kts 208°
2026-05-07 17:31 55.41748 49.28901 7976 ft 282 kts 232°
2026-05-07 17:31 55.40824 49.25912 7977 ft 278 kts 256°
2026-05-07 17:31 55.40651 49.22567 7975 ft 275 kts 277°
2026-05-07 17:31 55.40905 49.19231 7979 ft 275 kts 279°
2026-05-07 17:32 55.41151 49.15894 7977 ft 275 kts 278°
2026-05-07 17:32 55.41382 49.12554 7974 ft 275 kts 278°
2026-05-07 17:32 55.41608 49.09171 8522 ft 279 kts 278°
2026-05-07 17:32 55.41757 49.06919 9050 ft 280 kts 278°
2026-05-07 17:33 55.42012 49.02406 10076 ft 281 kts 276°
2026-05-07 17:33 55.42184 48.98851 10483 ft 303 kts 276°
2026-05-07 17:33 55.42363 48.94994 10812 ft 325 kts 276°
2026-05-07 17:33 55.42548 48.90966 11459 ft 334 kts 276°
2026-05-07 17:34 55.42738 48.86858 12244 ft 338 kts 275°
2026-05-07 17:34 55.42929 48.82719 13041 ft 341 kts 275°
2026-05-07 17:34 55.43120 48.78544 13835 ft 344 kts 275°
2026-05-07 17:34 55.43313 48.74331 14552 ft 346 kts 275°
2026-05-07 17:35 55.43505 48.70090 15289 ft 348 kts 275°
2026-05-07 17:35 55.43697 48.65832 16042 ft 349 kts 275°
2026-05-07 17:35 55.43885 48.61619 16798 ft 350 kts 275°
2026-05-07 17:35 55.44077 48.57333 17576 ft 352 kts 275°
2026-05-07 17:36 55.44271 48.52970 17889 ft 363 kts 275°
2026-05-07 17:36 55.44469 48.48502 17979 ft 367 kts 275°
2026-05-07 17:36 55.44665 48.44016 17988 ft 367 kts 275°
2026-05-07 17:36 55.44859 48.39537 17984 ft 367 kts 275°
2026-05-07 17:37 55.45048 48.35053 17988 ft 367 kts 274°
2026-05-07 17:37 55.45237 48.30567 17987 ft 367 kts 275°
2026-05-07 17:37 55.45425 48.26086 17984 ft 367 kts 274°
2026-05-07 17:37 55.45612 48.21608 17984 ft 367 kts 274°
2026-05-07 17:38 55.45798 48.17106 18306 ft 370 kts 274°
2026-05-07 17:38 55.45921 48.14104 18738 ft 371 kts 274°
2026-05-07 17:38 55.46107 48.09552 19355 ft 374 kts 274°
2026-05-07 17:38 55.46292 48.04959 19820 ft 377 kts 274°
2026-05-07 17:39 55.46476 48.00345 19976 ft 377 kts 274°
2026-05-07 17:39 55.46716 47.94218 20487 ft 381 kts 274°
2026-05-07 17:39 55.46900 47.89545 21092 ft 383 kts 274°
2026-05-07 17:39 55.47083 47.84837 21680 ft 387 kts 274°
2026-05-07 17:40 55.47207 47.81638 22066 ft 389 kts 274°
2026-05-07 17:40 55.47389 47.76860 22623 ft 392 kts 274°
2026-05-07 17:40 55.47569 47.72051 23168 ft 395 kts 274°
2026-05-07 17:40 55.47749 47.67203 23676 ft 398 kts 274°
2026-05-07 17:41 55.47924 47.62386 24113 ft 401 kts 274°
2026-05-07 17:41 55.48101 47.57476 24559 ft 403 kts 274°
2026-05-07 17:41 55.48278 47.52524 24996 ft 405 kts 274°
2026-05-07 17:41 55.48458 47.47553 25423 ft 408 kts 274°
2026-05-07 17:42 55.48637 47.42549 25843 ft 410 kts 274°
2026-05-07 17:42 55.48815 47.37514 26269 ft 413 kts 274°
2026-05-07 17:42 55.48991 47.32449 26691 ft 415 kts 274°
2026-05-07 17:42 55.49167 47.27356 27102 ft 418 kts 274°
2026-05-07 17:43 55.49340 47.22226 27522 ft 420 kts 274°
2026-05-07 17:43 55.49513 47.17070 27933 ft 422 kts 274°
2026-05-07 17:43 55.49684 47.11882 28330 ft 425 kts 274°
2026-05-07 17:43 55.49851 47.06670 28723 ft 427 kts 273°
2026-05-07 17:44 55.50017 47.01420 29097 ft 430 kts 273°
2026-05-07 17:44 55.50179 46.96202 29468 ft 432 kts 273°
2026-05-07 17:44 55.50341 46.90898 29830 ft 435 kts 273°
2026-05-07 17:44 55.50501 46.85560 30164 ft 437 kts 273°
2026-05-07 17:45 55.50661 46.80199 30472 ft 439 kts 273°
2026-05-07 17:45 55.50823 46.74740 30785 ft 441 kts 273°
2026-05-07 17:45 55.50981 46.69411 31142 ft 441 kts 273°
2026-05-07 17:45 55.51137 46.64016 31584 ft 439 kts 273°
2026-05-07 17:46 55.51291 46.58641 32025 ft 438 kts 273°
2026-05-07 17:46 55.51439 46.53285 32465 ft 436 kts 273°
2026-05-07 17:46 55.51583 46.47949 32900 ft 435 kts 273°
2026-05-07 17:46 55.51731 46.42619 33339 ft 434 kts 273°
2026-05-07 17:47 55.51910 46.37313 33781 ft 433 kts 274°
2026-05-07 17:47 55.52120 46.32019 33942 ft 432 kts 274°
2026-05-07 17:47 55.52565 46.21554 33962 ft 426 kts 274°
2026-05-07 17:48 55.52977 46.11142 33957 ft 424 kts 274°
2026-05-07 17:48 55.53360 46.00749 33958 ft 424 kts 274°
2026-05-07 17:49 55.53722 45.90421 33950 ft 424 kts 274°
2026-05-07 17:49 55.54082 45.80032 33953 ft 424 kts 274°
2026-05-07 17:50 55.54443 45.69656 33955 ft 423 kts 274°
2026-05-07 17:50 55.54794 45.59292 33954 ft 423 kts 273°
2026-05-07 17:51 55.55127 45.48916 33945 ft 422 kts 273°
2026-05-07 17:51 55.55455 45.38560 33948 ft 422 kts 273°
2026-05-07 17:52 55.55778 45.28207 33952 ft 422 kts 273°
2026-05-07 17:52 55.56088 45.17933 33949 ft 422 kts 273°
2026-05-07 17:53 55.56387 45.07588 33943 ft 422 kts 273°
2026-05-07 17:53 55.56680 44.97247 33941 ft 422 kts 272°
2026-05-07 17:54 55.56955 44.86897 33944 ft 421 kts 272°
2026-05-07 17:54 55.57232 44.76555 33946 ft 421 kts 272°
2026-05-07 17:55 55.57508 44.66226 33943 ft 421 kts 272°
2026-05-07 17:55 55.57770 44.55886 33948 ft 420 kts 272°
2026-05-07 17:56 55.58022 44.45628 33942 ft 420 kts 272°
2026-05-07 17:56 55.58263 44.35308 33940 ft 420 kts 272°
2026-05-07 17:57 55.58456 44.26738 33929 ft 420 kts 272°
2026-05-07 17:57 55.58712 44.14671 33922 ft 420 kts 272°
2026-05-07 17:58 55.58927 44.04346 33921 ft 420 kts 272°
2026-05-07 17:58 55.59146 43.94005 33923 ft 421 kts 272°
2026-05-07 17:59 55.59339 43.83657 33928 ft 421 kts 272°
2026-05-07 17:59 55.59505 43.73300 33931 ft 421 kts 271°
2026-05-07 18:00 55.59544 43.63011 33929 ft 421 kts 270°
2026-05-07 18:00 55.59539 43.52659 33934 ft 421 kts 270°
2026-05-07 18:01 55.59543 43.42309 33919 ft 421 kts 270°
2026-05-07 18:01 55.59556 43.31967 33919 ft 421 kts 270°
2026-05-07 18:02 55.59558 43.16442 33925 ft 421 kts 270°
2026-05-07 18:03 55.59543 43.06082 33926 ft 421 kts 270°
2026-05-07 18:03 55.59520 42.95740 33917 ft 422 kts 270°
2026-05-07 18:04 55.59489 42.85415 33923 ft 421 kts 270°
2026-05-07 18:04 55.59456 42.75066 33916 ft 421 kts 269°
2026-05-07 18:05 55.59410 42.64711 33914 ft 421 kts 269°
2026-05-07 18:05 55.59358 42.54371 33910 ft 421 kts 269°
2026-05-07 18:06 55.59293 42.44047 33913 ft 421 kts 269°
2026-05-07 18:06 55.59219 42.33696 33914 ft 420 kts 269°
2026-05-07 18:07 55.59132 42.23366 33910 ft 420 kts 269°
2026-05-07 18:07 55.59038 42.13125 33916 ft 419 kts 269°
2026-05-07 18:08 55.58941 42.02822 33914 ft 419 kts 269°
2026-05-07 18:08 55.58839 41.92524 33907 ft 419 kts 269°
2026-05-07 18:09 55.58721 41.82231 33908 ft 418 kts 269°
2026-05-07 18:09 55.58598 41.71958 33903 ft 418 kts 269°
2026-05-07 18:10 55.58467 41.61757 33907 ft 418 kts 269°
2026-05-07 18:10 55.58324 41.51405 33911 ft 418 kts 269°
2026-05-07 18:11 55.58168 41.41205 33749 ft 416 kts 269°
2026-05-07 18:11 55.58114 41.37752 33237 ft 416 kts 269°
2026-05-07 18:11 55.58004 41.30963 32161 ft 418 kts 269°
2026-05-07 18:11 55.57918 41.25867 31618 ft 413 kts 269°
2026-05-07 18:12 55.57834 41.20815 31063 ft 409 kts 269°
2026-05-07 18:12 55.57751 41.15812 30516 ft 406 kts 269°
2026-05-07 18:12 55.57667 41.10852 29967 ft 403 kts 269°
2026-05-07 18:12 55.57579 41.05922 29361 ft 399 kts 269°
2026-05-07 18:13 55.57488 41.01040 28779 ft 396 kts 269°
2026-05-07 18:13 55.57396 40.96203 28212 ft 392 kts 268°
2026-05-07 18:13 55.57303 40.91484 27660 ft 388 kts 268°
2026-05-07 18:13 55.57207 40.86725 27115 ft 385 kts 268°
2026-05-07 18:14 55.57111 40.82017 26596 ft 382 kts 268°
2026-05-07 18:14 55.57016 40.77348 26086 ft 379 kts 268°
2026-05-07 18:14 55.56918 40.72713 25599 ft 376 kts 268°
2026-05-07 18:14 55.56823 40.68122 25123 ft 373 kts 268°
2026-05-07 18:15 55.56727 40.63554 24667 ft 370 kts 268°
2026-05-07 18:15 55.56626 40.59022 24235 ft 368 kts 268°
2026-05-07 18:15 55.56522 40.54522 23790 ft 365 kts 268°
2026-05-07 18:15 55.56416 40.50056 23328 ft 363 kts 267°
2026-05-07 18:16 55.56310 40.45625 22821 ft 360 kts 267°
2026-05-07 18:16 55.56198 40.41220 22329 ft 357 kts 267°
2026-05-07 18:16 55.56080 40.36851 21857 ft 354 kts 267°
2026-05-07 18:16 55.55970 40.32519 21387 ft 352 kts 267°
2026-05-07 18:17 55.55857 40.28224 20919 ft 349 kts 267°
2026-05-07 18:17 55.55732 40.23966 20452 ft 346 kts 266°
2026-05-07 18:17 55.55604 40.19732 19983 ft 344 kts 266°
2026-05-07 18:17 55.55476 40.15578 19541 ft 341 kts 266°
2026-05-07 18:18 55.55349 40.11409 19104 ft 339 kts 266°
2026-05-07 18:18 55.55222 40.07268 18668 ft 337 kts 266°
2026-05-07 18:18 55.55097 40.03154 18247 ft 334 kts 266°
2026-05-07 18:18 55.55047 39.99074 17922 ft 330 kts 273°
2026-05-07 18:19 55.55273 39.95039 17898 ft 331 kts 275°
2026-05-07 18:19 55.55496 39.91012 17567 ft 327 kts 274°
2026-05-07 18:19 55.55717 39.87019 17091 ft 326 kts 274°
2026-05-07 18:19 55.55926 39.83058 16665 ft 323 kts 274°
2026-05-07 18:20 55.56129 39.79122 16232 ft 320 kts 274°
2026-05-07 18:20 55.56327 39.75273 15844 ft 318 kts 274°
2026-05-07 18:20 55.56527 39.71404 15445 ft 315 kts 274°
2026-05-07 18:20 55.56728 39.67570 15045 ft 313 kts 274°
2026-05-07 18:21 55.56925 39.63762 14656 ft 310 kts 274°
2026-05-07 18:21 55.57118 39.59976 14277 ft 308 kts 273°
2026-05-07 18:21 55.57309 39.56213 13949 ft 306 kts 273°
2026-05-07 18:21 55.57448 39.52463 13881 ft 305 kts 268°
2026-05-07 18:22 55.57211 39.48745 13830 ft 303 kts 259°
2026-05-07 18:22 55.56972 39.46321 13556 ft 301 kts 259°
2026-05-07 18:22 55.56487 39.41454 12962 ft 299 kts 259°
2026-05-07 18:22 55.56124 39.37843 12542 ft 297 kts 259°
2026-05-07 18:23 55.55770 39.34311 12126 ft 295 kts 259°
2026-05-07 18:23 55.55412 39.30756 11706 ft 293 kts 259°
2026-05-07 18:23 55.55057 39.27223 11293 ft 291 kts 259°
2026-05-07 18:23 55.54703 39.23722 10885 ft 289 kts 259°
2026-05-07 18:24 55.54352 39.20247 10477 ft 287 kts 259°
2026-05-07 18:24 55.54000 39.16791 10067 ft 285 kts 259°
2026-05-07 18:24 55.53654 39.13389 9869 ft 276 kts 259°
2026-05-07 18:24 55.53320 39.10129 9735 ft 265 kts 258°
2026-05-07 18:25 55.52993 39.06965 9437 ft 260 kts 259°
2026-05-07 18:25 55.52670 39.03828 9059 ft 259 kts 259°
2026-05-07 18:25 55.52350 39.00706 8998 ft 259 kts 259°
2026-05-07 18:25 55.52147 38.97532 9001 ft 262 kts 268°
2026-05-07 18:26 55.52315 38.94322 9004 ft 264 kts 278°
2026-05-07 18:26 55.52667 38.91144 9002 ft 264 kts 278°
2026-05-07 18:26 55.53011 38.87964 9002 ft 264 kts 278°
2026-05-07 18:26 55.53350 38.84788 9001 ft 263 kts 278°
2026-05-07 18:27 55.53686 38.81619 9003 ft 264 kts 277°
2026-05-07 18:27 55.54021 38.78461 9003 ft 264 kts 277°
2026-05-07 18:27 55.54359 38.75277 9000 ft 264 kts 277°
2026-05-07 18:27 55.54588 38.73124 9004 ft 264 kts 277°
2026-05-07 18:28 55.55038 38.68909 9001 ft 264 kts 277°
2026-05-07 18:28 55.55376 38.65728 9002 ft 264 kts 277°
2026-05-07 18:28 55.55712 38.62556 8835 ft 261 kts 277°
2026-05-07 18:28 55.56044 38.59407 8415 ft 260 kts 277°
2026-05-07 18:29 55.56372 38.56263 8047 ft 259 kts 277°
2026-05-07 18:29 55.56691 38.53131 8000 ft 260 kts 277°
2026-05-07 18:29 55.57018 38.49982 8006 ft 261 kts 277°
2026-05-07 18:29 55.57364 38.46825 8002 ft 262 kts 280°
2026-05-07 18:30 55.58026 38.43804 8005 ft 267 kts 295°
2026-05-07 18:30 55.58988 38.40990 8004 ft 267 kts 297°
2026-05-07 18:30 55.59947 38.38181 8007 ft 267 kts 296°
2026-05-07 18:30 55.60900 38.35361 8004 ft 267 kts 296°
2026-05-07 18:31 55.61838 38.32569 8008 ft 267 kts 296°
2026-05-07 18:31 55.62787 38.29745 8008 ft 267 kts 296°
2026-05-07 18:31 55.63738 38.26916 8007 ft 267 kts 296°
2026-05-07 18:31 55.64676 38.24085 8004 ft 266 kts 292°
2026-05-07 18:32 55.65309 38.21056 7996 ft 261 kts 281°
2026-05-07 18:32 55.65781 38.17976 7648 ft 258 kts 281°
2026-05-07 18:32 55.66249 38.14905 7239 ft 258 kts 281°
2026-05-07 18:32 55.66716 38.11840 6835 ft 257 kts 282°
2026-05-07 18:33 55.67176 38.08836 6650 ft 247 kts 282°
2026-05-07 18:33 55.67615 38.05965 6528 ft 235 kts 281°
2026-05-07 18:33 55.67980 38.03218 6385 ft 224 kts 274°
2026-05-07 18:33 55.67937 38.00512 6104 ft 219 kts 258°
2026-05-07 18:34 55.67478 37.97957 5797 ft 218 kts 248°
2026-05-07 18:34 55.66917 37.95452 5419 ft 219 kts 248°
2026-05-07 18:34 55.66359 37.92930 5057 ft 220 kts 248°
2026-05-07 18:34 55.65800 37.90408 4694 ft 221 kts 248°
2026-05-07 18:35 55.65229 37.87875 4328 ft 221 kts 245°
2026-05-07 18:35 55.64374 37.85624 3970 ft 222 kts 228°
2026-05-07 18:35 55.63295 37.83651 3614 ft 223 kts 227°
2026-05-07 18:35 55.62230 37.81693 3273 ft 224 kts 227°
2026-05-07 18:36 55.61152 37.79705 3017 ft 223 kts 227°
2026-05-07 18:36 55.60073 37.77715 3002 ft 222 kts 227°
2026-05-07 18:36 55.59045 37.75816 2997 ft 206 kts 226°
2026-05-07 18:36 55.58091 37.74078 3021 ft 188 kts 224°
2026-05-07 18:37 55.57054 37.72892 3004 ft 168 kts 205°
2026-05-07 18:37 55.56003 37.72407 2893 ft 146 kts 188°
2026-05-07 18:37 55.55034 37.72444 2687 ft 136 kts 174°
2026-05-07 18:37 55.54135 37.72880 2530 ft 135 kts 160°
2026-05-07 18:38 55.53304 37.73671 2504 ft 137 kts 148°
2026-05-07 18:38 55.52517 37.74625 2505 ft 137 kts 148°
2026-05-07 18:38 55.51740 37.75565 2514 ft 138 kts 147°
2026-05-07 18:38 55.50950 37.76522 2511 ft 138 kts 147°
2026-05-07 18:39 55.50159 37.77480 2422 ft 138 kts 147°
2026-05-07 18:39 55.49369 37.78437 2278 ft 137 kts 147°
2026-05-07 18:39 55.48585 37.79386 2113 ft 136 kts 147°
2026-05-07 18:39 55.47802 37.80333 1950 ft 136 kts 147°
2026-05-07 18:40 55.47021 37.81278 1770 ft 136 kts 146°
2026-05-07 18:40 55.46504 37.81902 1656 ft 136 kts 146°
2026-05-07 18:40 55.45727 37.82841 1490 ft 135 kts 146°
2026-05-07 18:40 55.44954 37.83774 1325 ft 134 kts 146°
2026-05-07 18:41 55.44188 37.84699 1149 ft 133 kts 145°
2026-05-07 18:41 55.43426 37.85618 967 ft 132 kts 144°
2026-05-07 18:41 55.42667 37.86533 786 ft 132 kts 144°
2026-05-07 18:41 55.41911 37.87448 611 ft 131 kts 144°
2026-05-07 18:42 55.41267 37.88237 582 ft 90 kts 146°
2026-05-07 18:42 55.40885 37.88689 576 ft 43 kts 144°
2026-05-07 18:42 55.40738 37.89042 576 ft 34 kts 116°
2026-05-07 18:42 55.40728 37.89223 572 ft 0 kts 57°
2026-05-07 18:43 55.40730 37.89230 571 ft 3 kts 57°
2026-05-07 18:44 55.40752 37.89285 570 ft 8 kts 54°
2026-05-07 18:44 55.40799 37.89409 570 ft 17 kts 57°
2026-05-07 18:44 55.40880 37.89578 575 ft 19 kts 52°
2026-05-07 18:44 55.40962 37.89783 574 ft 21 kts 55°
2026-05-07 18:45 55.41047 37.90009 568 ft 23 kts 55°
2026-05-07 18:45 55.41121 37.90154 568 ft 16 kts 19°
2026-05-07 18:45 55.41213 37.90229 573 ft 14 kts 45°
2026-05-07 18:45 55.41285 37.90199 573 ft 10 kts 330°
2026-05-07 18:46 55.41324 37.90124 576 ft 8 kts 272°
2026-05-07 18:46 55.41307 37.90056 576 ft 2 kts 240°
2026-05-07 18:46 55.41303 37.90044 576 ft 1 kts 239°
2026-05-07 18:46 55.41301 37.90041 576 ft 0 kts 240°